Flag for Germany Weather past 2 weeks in Göttingen, Lower Saxony, Germany

Now
54 °F

Partly sunny.


Feels Like: 52 °F
Forecast: 42 / 55 °F
Wind: 6 mph from Northwest

Location: Kassel / Calden

Current Time: May 25, 2015 at 6:05:05 PM

Latest Report: May 25, 2015 at 5:20 PM


Visibility: N/A

Pressure: 29.95 "Hg

Humidity: 77%

Dew point: 46 °F

Location of GöttingenLocation

Historic Weather in Göttingen — Graph

°F

Göttingen temperature yesterday

Maximum temperature yesterday: 66 °F (at 4:20 PM)
Minimum temperature yesterday: 43 °F (at 5:50 AM)
Average temperature yesterday: 57 °F

Past Weeks' High & Low Weather Summary

 TemperatureHumidityPressure
High79 °F (May 12, 2:50 PM)100% (May 25, 7:20 AM)30.33 "Hg (May 25, 7:20 AM)
Low37 °F (May 16, 5:50 AM)34% (May 22, 3:20 PM)29.65 "Hg (May 18, 7:20 PM)
Average57 °F61%30.05 "Hg
* Reported May 10 4:20 PM — May 25 4:50 PM, Göttingen, Weather by CustomWeather, © 2015

Note: Actual official high and low records may vary slightly from our data, if they occured in-between our weather recording intervals... More about our weather records

Advertising

Göttingen weather history for previous 24 hours

 ConditionsComfort  
Time TempWeatherWind HumidityBarometerVisibility
4:50 PM
Mon, May 25
54 °FMostly cloudy.12 mph88%29.95 "HgN/A
4:20 PM54 °FLight rain. Mostly cloudy.13 mph88%29.95 "HgN/A
3:50 PM54 °FMostly cloudy.12 mph88%29.95 "HgN/A
3:20 PM55 °FMore clouds than sun.14 mph82%29.95 "HgN/A
2:50 PM55 °FBroken clouds.14 mph82%29.95 "HgN/A
2:20 PM57 °FBroken clouds.10 mph77%29.95 "HgN/A
1:50 PM57 °FBroken clouds.9 mph77%29.95 "HgN/A
1:20 PM57 °FPartly sunny.6 mph82%29.95 "HgN/A
12:50 PM55 °FLight rain. Broken clouds.6 mph82%29.95 "Hg6 mi
12:20 PM55 °FLight rain. Broken clouds.9 mph77%29.95 "HgN/A
11:50 AM57 °FBroken clouds.7 mph67%29.95 "HgN/A
11:20 AM57 °FPassing clouds.6 mph72%29.95 "HgN/A
10:50 AM55 °FPassing clouds.3 mph72%29.98 "HgN/A
10:20 AM55 °FPassing clouds.5 mph72%29.98 "HgN/A
9:50 AM55 °FSunny.8 mph67%29.98 "Hg10 mi
9:20 AM55 °FSunny.9 mph67%29.98 "Hg10 mi
8:50 AM55 °FSunny.9 mph72%29.98 "Hg10 mi
8:20 AM55 °FLight fog.3 mph72%29.98 "HgN/A
7:50 AM52 °FLight fog.1 mph88%29.98 "HgN/A
7:20 AM48 °FLight fog.2 mph100%29.98 "HgN/A
6:50 AM46 °FLight fog.3 mph93%29.98 "HgN/A
6:20 AM46 °FLight fog.2 mph87%29.98 "HgN/A
5:50 AM45 °FClear.5 mph93%29.98 "Hg10 mi
9:50 PM
Sun, May 24
57 °FScattered clouds.3 mph82%30.04 "HgN/A
9:20 PM59 °FScattered clouds.2 mph77%30.01 "HgN/A
8:50 PM63 °FScattered clouds.1 mph64%30.04 "HgN/A
8:20 PM63 °FSunny.2 mph68%30.04 "Hg10 mi
7:50 PM63 °FPartly sunny.1 mph64%30.04 "HgN/A
7:20 PM64 °FPartly sunny.2 mph60%30.04 "HgN/A
6:50 PM63 °FPartly sunny.3 mph64%30.04 "HgN/A
6:20 PM64 °FPartly sunny.3 mph60%30.04 "HgN/A
Weather by CustomWeather, © 2015

See weather overviewHow to use our weather pages